Find Gorizont

NORAD ID: 20953 Int'l Des: 1990-102 Owner: MSVYAZ Country: SU operational
MEOCIRCULARGSO

Current View

Loading 3D Globe...

About Gorizont

Description loading...

Upcoming Passes

Passes for default location (London). Set your location on the main map for personalized predictions.

Altitude History

Loading altitude history...

Two-Line Element Set

1 20953U 90102A 26150.88742726 -.00000288 00000-0 00000-0 0 9998
2 20953 12.7417 337.3643 0004600 349.0471 22.1160 1.00269451130206
Epoch: May 30, 2026 • Age: 17 hours

Current Status

Altitude 35788.1 km
Velocity 3.07 km/s
Sub-Earth Point -12.67°S, 140.43°E
Launch Date Nov 23, 1990
Age 35.5 years
Type other

Technical Details

Classification Payload
Mass 2120.00 kg
Dry Mass 2000.00 kg
Total Mass 2120.00 kg
Length 5.50 m
Diameter 3.30 m
Span 9.50 m
Shape Cyl + 2 Pan
Manufacturer NPOPM
Bus Type Gorizont
Phase Status In Orbit
Owner/State MSVYAZ/SU

Most Searched